Location: Newark
(41.6500°N, 71.4833°W)
Time: 04:24:29
(UTC+00:00)

A-11 Canister half - Pass Details

Date: 27 January 2020
Orbit: 1517 x 1683 km, 47.2° (Epoch: 18 February)

Event Time Altitude Azimuth Distance (km) Brightness Sun altitude
Rises 08:01:57 0° 289° (WNW) 4,686 - -44.8°
Reaches altitude 10° 08:05:02 10° 292° (WNW) 3,692 - -44.3°
Maximum altitude 08:14:18 72° 16° (NNE) 1,585 - -42.6°
Exits shadow 08:16:04 60° 72° (ENE) 1,708 9.2 -42.3°
Drops below altitude 10° 08:23:36 10° 101° (E) 3,697 11.6 -40.9°
Sets 08:26:41 0° 104° (ESE) 4,692 12.3 -40.3°
